Find Starlink 5021

NORAD ID: 53902 Int'l Des: 2022-119 Owner: SPXS Country: US Constellation: starlink operational
LEOCIRCULAR

Live-Position

3D-Globus wird geladen...

Über Starlink 5021

Beschreibung wird geladen...

Nächste Überflüge

Passes for default location (London). Set your location on the main map for personalized predictions.

Höhenverlauf

Loading altitude history...

Zweizeiliger Elementsatz

1 53902U 22119S 26120.98037292 .00000995 00000-0 80590-4 0 9994
2 53902 53.2191 39.1311 0001688 93.3439 266.7746 15.08837262200286
Epoch: 30. Apr. 2026 • Age: 15 hours

Aktueller Status

Höhe 543.7 km
Geschwindigkeit 7.59 km/s
Subsatellitenpunkt -13.94°S, 146.77°E
Startdatum 24. Sept. 2022
Alter 3.5 years
Typ internet

Technische Details

Klassifizierung Payload
Masse 305.00 kg
Trockenmasse 290.00 kg
Gesamtmasse 305.00 kg
Länge 0.20 m
Durchmesser 2.80 m
Spannweite 9.00 m
Form Box + pan
Hersteller SPXS
Bus-Typ Starlink
Phasenstatus In Orbit
Besitzer/Staat SPXS/US

Most Searched